STARLINK-35080 (65437 NORAD) Tracking and Keplerian Element Data

This shows tracking and keplerian element data for the satellite.

Feedback or suggestion? Click here.




ElementValue
Catalog65437
NameSTARLINK-35080
Epoch Orbit1768
Epoch Day354.1627537
Epoch Year2025
RAAN206.0406
Inclination97.6001
Eccentricity0.0001213
Argument of Perigee66.233
Mean Anonmoly293.9024
Mean Motion15.05650368
Decay Rate5.531E-05
L11 65437U 25194D 25354.16275370 .00005531 00000+0 38723-3 0 9995
L22 65437 97.6001 206.0406 0001213 66.2330 293.9024 15.05650368 17685



Live tracking and technical data element details for STARLINK-35080 (NORAD 65437). STARLINK-35080 can be tracked NOW for your location showing map with azimuth and elevation plus other details from your city location.







IsCatalogInMostPopularTable: catalog: 65437, numindb: 3
Update: records affected: 1



GetName: 65437 STARLINK-35080

Hit Count: updated at: Wed, 11 Feb 2026 15:16:33 GMT